Andalusia, AL

3:00 AM CDT on June 29, 2017 (GMT -0500)
Andalusia

Weather History for K79J - September, 2012

Change the Weather History Date:

Tuesday, September 11, 2012

  Actual Average (KCEW) Record (KCEW)
Temperature  
Mean Temperature 74 °F -  
Max Temperature 86 °F 91 °F 97 °F (2002)
Min Temperature 63 °F 67 °F 55 °F (1976)
Cooling Degree Days 10    
Growing Degree Days 24 (Base 50)    
Moisture  
Dew Point 59 °F    
Average Humidity 62    
Maximum Humidity 87    
Minimum Humidity 33    
Precipitation  
Precipitation 0.00 in - - ()
Sea Level Pressure  
Sea Level Pressure 30.13 in    
Wind  
Wind Speed 3 mph (ESE)    
Max Wind Speed 12 mph    
Max Gust Speed 17 mph    
Visibility 10 miles    
Events      
Averages and records for this station are not official NWS values.
T = Trace of Precipitation, MM = Missing Value Source: NWS Daily Summary

Daily Weather History Graph

Daily Weather History Graph

Search for Another Location

Airport or City:

Trip Planner

Search our weather history database for the weather conditions in past years. The results will help you decide how hot, cold, wet, or windy it might be!

Date:

Astronomy

Sep. 11, 2012 Rise Set
Actual Time 6:27 AM CDT 6:55 PM CDT
Civil Twilight 6:03 AM CDT 7:20 PM CDT
Nautical Twilight 5:34 AM CDT 7:48 PM CDT
Astronomical Twilight 5:05 AM CDT 8:17 PM CDT
Moon 1:58 AM CDT (9/11) 3:53 PM CDT (9/11)
Length of Visible Light 13h 16m
Length of Day
12h 28m
Waning Crescent, 21% of the Moon is Illuminated
Sep 11
Waning Crescent
Sep 15
New
Sep 22
First Quarter
Sep 29
Full
Oct 8
Last Quarter

Hourly Weather History & Observations

Time (CDT) Temp. Heat Index Dew Point Humidity Pressure Visibility Wind Dir Wind Speed Gust Speed Precip Events Conditions
12:56 AM 66.9 °F - 62.1 °F 84% 30.07 in 10.0 mi Calm Calm - N/A   Clear
1:56 AM 66.0 °F - 61.0 °F 84% 30.07 in 9.0 mi Calm Calm - N/A   Clear
2:56 AM 64.9 °F - 60.1 °F 84% 30.08 in 7.0 mi Calm Calm - N/A   Clear
3:56 AM 64.0 °F - 59.0 °F 84% 30.09 in 7.0 mi Calm Calm - N/A   Clear
4:56 AM 64.0 °F - 59.0 °F 84% 30.10 in 10.0 mi Calm Calm - N/A   Clear
5:56 AM 63.0 °F - 59.0 °F 87% 30.12 in 10.0 mi Calm Calm - N/A   Clear
6:56 AM 64.0 °F - 59.0 °F 84% 30.14 in 9.0 mi Calm Calm - N/A   Clear
7:56 AM 70.0 °F - 62.1 °F 76% 30.17 in 10.0 mi SE 3.5 mph - N/A   Clear
8:56 AM 77.0 °F - 61.0 °F 58% 30.17 in 10.0 mi SE 4.6 mph - N/A   Clear
9:56 AM 80.1 °F 80.6 °F 57.9 °F 47% 30.19 in 10.0 mi SE 9.2 mph 17.3 mph N/A   Clear
10:56 AM 82.9 °F 82.4 °F 57.0 °F 41% 30.19 in 10.0 mi SE 11.5 mph 17.3 mph N/A   Clear
11:56 AM 84.0 °F 83.0 °F 55.9 °F 38% 30.17 in 10.0 mi ESE 9.2 mph - N/A   Clear
12:56 PM 86.0 °F 84.5 °F 55.0 °F 35% 30.16 in 10.0 mi East 9.2 mph - N/A   Scattered Clouds
1:56 PM 86.0 °F 84.2 °F 54.0 °F 33% 30.14 in 10.0 mi East 11.5 mph - N/A   Partly Cloudy
2:56 PM 86.0 °F 84.2 °F 54.0 °F 33% 30.12 in 10.0 mi SE 9.2 mph - N/A   Clear
3:56 PM 86.0 °F 84.5 °F 55.0 °F 35% 30.11 in 10.0 mi East 9.2 mph - N/A   Clear
4:56 PM 86.0 °F 84.7 °F 55.9 °F 36% 30.11 in 10.0 mi East 6.9 mph - N/A   Clear
5:56 PM 84.0 °F 83.8 °F 59.0 °F 43% 30.11 in 10.0 mi ENE 4.6 mph - N/A   Clear
6:56 PM 77.0 °F - 62.1 °F 60% 30.12 in 10.0 mi Calm Calm - N/A   Clear
7:16 PM 75.2 °F - 62.6 °F 65% 30.14 in 10.0 mi Calm Calm - N/A   Partly Cloudy
7:56 PM 73.9 °F - 62.1 °F 66% 30.13 in 10.0 mi Calm Calm - N/A   Scattered Clouds
8:56 PM 73.0 °F - 63.0 °F 71% 30.15 in 10.0 mi Calm Calm - N/A   Partly Cloudy
9:56 PM 72.0 °F - 63.0 °F 73% 30.16 in 10.0 mi Calm Calm - N/A   Scattered Clouds
10:56 PM 72.0 °F - 62.1 °F 71% 30.16 in 10.0 mi Calm Calm - N/A   Mostly Cloudy
11:56 PM 72.0 °F - 63.0 °F 73% 30.16 in 10.0 mi Calm Calm - N/A   Mostly Cloudy